Temperature
18 18 18 18 18 18 18 18 19 19 19 19 18 18 18 18 18 18 18 18 18 18 18 18 18 18 18 18 18 18 17 17 17 17 17 17 17 17 17 17 17 17 17
18 18 18 18 18 18 18 18 18 19 19 18 18 19 18 18 18 18 18 18 18 18 18 18 18 18 18 18 18 18 17 17 17 17 17 17 17 17 17 17 17 17 17
18 18 18 18 18 18 18 18 18 18 18 18 19 19 19 19 18 18 18 18 18 18 18 18 18 18 18 18 18 17 17 17 17 17 17 17 17 17 17 17 17 17 17
17 17 18 18 18 18 18 18 18 18 18 18 18 19 19 19 18 18 18 18 18 18 18 18 18 18 18 18 17 17 17 17 17 17 17 17 17 17 17 17 17 16 16
17 17 17 17 17 17 17 18 18 18 18 18 18 19 18 18 18 18 18 18 18 18 18 18 18 18 18 18 18 17 17 17 17 17 17 17 17 17 16 16 16 16 16
17 17 17 17 17 17 17 17 17 18 18 18 18 18 18 18 18 18 18 18 18 18 18 18 18 18 18 18 18 17 17 17 17 17 17 17 17 17 16 16 16 16 16
16 16 16 17 17 17 17 17 17 17 18 18 18 18 18 18 18 18 18 18 18 18 18 18 18 18 18 18 18 18 17 17 17 17 17 17 17 17 16 16 16 16 16
16 16 16 16 16 17 17 17 17 17 17 17 17 18 18 18 18 18 18 18 18 18 18 17 17 18 18 18 18 18 17 17 17 17 17 17 17 17 17 16 16 16 16
15 16 16 16 16 16 16 17 17 17 17 17 17 17 17 17 18 18 18 18 18 18 18 18 17 17 17 17 17 17 17 17 17 17 17 17 17 17 16 16 16 16 16
15 15 15 16 16 16 16 16 16 17 17 17 17 17 17 17 18 17 17 17 17 17 17 17 17 17 17 17 17 17 17 17 17 17 17 17 17 17 16 16 16 16 16
14 15 15 15 15 16 16 16 16 16 16 16 16 16 16 17 17 17 17 17 17 17 17 17 17 17 17 17 17 17 17 17 17 17 17 17 16 16 16 16 16 16 16
14 15 15 15 15 15 15 16 16 16 16 16 16 16 16 16 17 17 17 17 17 17 17 17 17 17 17 17 17 17 17 16 16 16 16 16 16 16 16 16 16 16 15
14 14 14 15 15 15 15 15 15 16 16 16 16 16 16 16 16 16 16 16 16 16 16 16 16 16 16 16 16 16 16 16 16 16 16 16 16 16 16 15 15 15 15
14 14 14 14 14 15 15 15 15 15 15 16 16 16 16 16 16 16 16 16 16 16 16 16 16 16 16 16 16 16 16 16 16 15 15 15 15 15 15 15 15 15 15
13 14 14 14 14 14 15 15 15 15 15 15 15 15 16 15 15 15 15 16 16 15 15 15 15 16 16 15 15 15 15 15 15 15 15 15 15 15 15 15 15 14 14
13 13 14 14 14 14 14 15 15 15 15 15 15 15 15 15 15 15 15 15 15 15 15 15 15 15 15 15 15 15 15 15 15 15 14 14 14 14 14 14 14 14 14
13 13 13 14 14 14 14 14 14 15 15 15 15 15 15 15 15 15 15 15 15 15 15 15 15 14 15 15 15 15 14 14 14 14 14 14 14 14 14 14 13 13 13
13 13 13 13 13 14 14 14 14 14 14 14 14 14 14 14 14 14 14 14 14 15 15 14 14 14 14 14 14 14 14 14 14 14 14 13 13 13 13 13 13 13 13
12 12 13 13 13 13 13 14 14 14 14 14 14 14 14 14 14 14 14 14 14 14 14 14 14 14 14 14 14 14 13 13 13 13 13 13 13 13 13 12 12 12 12
12 12 12 12 13 13 13 13 14 14 14 14 14 14 14 14 14 14 14 14 14 14 14 14 14 13 13 13 13 13 13 13 13 13 12 12 12 12 12 12 12 12 12
12 12 12 12 12 13 13 13 13 13 13 13 13 14 14 14 14 14 14 14 14 14 13 13 13 13 13 13 13 13 13 12 12 12 12 12 12 12 12 12 12 12 12
11 11 12 12 12 12 12 12 13 13 13 13 13 13 13 13 14 14 14 13 13 14 13 13 13 13 13 13 13 13 13 12 12 12 12 11 11 11 11 11 11 11 11
11 11 11 11 11 12 12 12 12 12 12 12 13 13 13 13 13 13 13 13 13 13 13 14 13 13 13 13 13 13 12 12 12 11 11 11 11 11 11 11 11 11 11
11 11 11 11 11 11 11 12 12 12 12 12 12 13 13 13 13 13 13 13 13 13 13 13 13 13 13 13 13 13 12 12 12 11 11 11 10 10 10 10 10 10 10
11 11 11 11 11 11 11 11 12 12 12 12 12 12 13 13 13 13 13 13 13 13 13 13 13 13 13 13 13 12 12 12 11 11 11 11 10 10 10 9 10 10 9
10 10 11 11 11 11 11 11 12 12 12 12 12 12 12 12 13 13 13 13 13 13 13 12 12 12 12 12 12 12 12 12 12 11 11 11 10 10 9 9 9 9 9
Wind_Speed
5 5 6 8 9 9 8 6 6 7 7 8 9 8 7 9 10 11 12 14 14 12 11 10 10 10 9 9 8 8 8 8 8 8 8 9 10 10 10 9 8 8 7
6 5 5 5 7 9 10 8 7 6 6 6 7 7 8 10 11 12 12 14 15 13 12 11 11 10 10 10 9 9 9 9 9 8 8 9 9 9 9 8 8 7 6
7 5 5 6 6 9 10 7 7 5 5 5 5 5 6 8 10 12 13 12 13 14 13 12 12 11 11 10 10 10 9 9 9 9 9 9 9 9 8 7 6 6 5
8 5 5 6 6 6 5 5 5 4 4 3 3 3 4 6 9 11 11 12 12 11 13 13 13 12 11 11 11 10 10 10 10 9 9 9 8 8 7 6 6 5 5
8 6 6 5 6 4 4 5 4 4 4 3 3 3 3 5 6 8 8 10 12 12 12 13 14 13 13 12 11 11 11 10 10 9 9 9 8 8 7 6 5 5 4
7 6 5 6 6 5 5 5 4 3 3 3 2 2 2 3 5 6 7 8 10 12 13 12 13 13 14 13 13 12 12 11 10 10 9 9 8 8 7 6 5 4 4
6 5 6 6 6 7 7 7 5 4 3 2 2 1 2 1 3 4 5 5 6 10 11 12 12 12 12 14 14 13 13 12 12 11 10 10 9 8 7 6 5 4 4
5 5 6 6 7 6 7 7 6 4 3 3 4 3 1 2 1 2 3 5 6 6 7 11 10 11 11 12 13 15 14 13 13 12 11 10 10 9 8 7 6 5 4
5 4 5 5 6 7 7 8 8 7 5 3 3 4 4 5 2 1 1 3 5 5 5 7 10 11 11 11 12 15 15 14 13 13 12 11 11 10 9 8 7 6 5
5 4 4 5 5 5 7 8 8 6 6 5 3 2 2 4 4 2 0 1 3 4 5 4 6 10 12 11 12 14 16 16 15 13 12 11 11 10 9 9 8 7 6
4 4 4 4 5 5 6 7 6 7 6 6 5 4 2 1 2 3 3 1 1 1 3 3 3 6 10 12 12 14 17 17 16 14 13 12 11 10 9 9 8 7 6
3 4 4 4 4 4 5 6 6 8 7 7 6 5 4 4 3 3 3 2 2 1 1 2 2 4 8 11 13 15 18 17 16 15 14 12 11 10 9 9 8 7 6
3 4 4 3 3 4 5 5 6 6 8 8 8 6 5 5 4 4 4 3 2 1 1 1 1 3 6 10 12 15 16 17 16 15 14 13 12 10 9 8 8 7 6
4 4 3 3 3 4 4 5 5 6 6 8 8 7 5 5 4 4 5 5 3 1 1 2 0 1 3 6 9 14 13 16 15 14 13 12 12 11 9 8 6 5 5
4 4 3 2 2 2 3 4 4 4 5 6 6 7 5 5 5 4 4 5 6 4 3 3 2 1 3 4 6 9 9 13 13 12 11 11 10 9 8 7 5 4 3
6 5 5 4 3 1 1 2 3 4 4 4 5 6 5 4 4 4 5 4 4 5 4 3 2 2 2 3 6 7 8 10 11 11 10 10 9 8 8 7 6 4 3
7 7 6 5 4 4 2 1 1 2 3 3 4 6 6 5 5 4 5 5 4 4 4 2 1 1 2 3 3 5 6 6 7 9 9 7 7 6 6 6 5 4 3
7 7 6 6 5 4 4 3 1 1 3 3 4 5 5 5 6 5 4 5 5 4 5 4 2 2 2 3 4 4 4 5 6 8 9 8 8 7 5 5 5 4 3
8 8 7 7 5 5 4 3 2 2 2 2 3 4 5 6 5 4 5 5 4 4 4 4 3 2 1 2 3 3 4 5 7 8 9 9 9 9 8 7 7 6 4
8 8 7 7 6 5 4 3 3 3 3 3 2 3 4 5 6 6 5 5 5 5 5 5 4 2 2 3 4 5 4 4 5 7 9 11 13 12 10 9 8 7 6
9 7 8 8 7 6 5 5 4 5 4 4 4 3 3 4 5 5 5 5 6 5 5 5 4 3 3 3 4 4 6 6 5 4 6 7 9 9 9 10 9 8 7
8 8 8 8 8 7 8 9 6 5 5 5 5 4 4 4 5 6 7 8 8 7 6 4 3 4 3 4 4 6 6 5 3 3 5 5 5 6 7 9 10 10 9
7 8 8 8 8 8 10 10 10 6 6 5 5 4 4 4 5 6 8 8 6 6 7 6 5 4 4 5 6 6 5 4 4 4 5 4 4 5 7 9 11 11 10
6 6 7 8 8 10 13 12 11 8 7 6 5 5 5 4 5 7 8 8 7 6 5 5 5 4 4 5 6 6 7 7 7 4 3 3 2 3 4 8 10 11 11
6 6 6 8 9 9 13 13 11 6 6 7 6 6 5 5 7 10 10 9 9 7 9 11 11 9 9 10 10 9 8 8 5 2 2 3 3 3 2 3 8 10 11
5 5 7 7 8 8 12 12 10 5 6 5 5 6 7 7 9 10 8 9 9 6 6 7 8 9 8 9 9 7 8 8 5 3 2 3 3 3 2 1 2 5 7
Wind_Direction
219 220 224 214 208 203 205 212 221 228 235 241 241 230 211 200 197 190 193 193 184 179 175 172 171 169 166 161 157 155 153 150 146 143 140 139 138 139 137 137 136 135 133
214 212 219 214 211 209 208 209 213 220 229 230 232 224 209 197 193 188 190 193 188 184 181 178 176 175 172 170 165 163 161 158 155 152 150 148 147 146 144 144 143 141 141
219 210 210 216 215 214 212 210 214 220 230 227 225 219 196 187 183 186 188 188 188 188 186 183 180 179 176 174 172 170 169 166 165 162 159 157 155 153 153 156 158 159 157
224 217 212 212 205 204 208 205 201 199 217 210 208 199 177 175 176 182 184 186 186 186 189 189 184 182 183 180 178 178 177 175 172 171 169 167 165 164 164 165 170 172 173
233 216 218 215 197 194 205 211 200 189 192 193 200 186 166 167 175 180 181 187 189 188 187 192 188 185 186 185 183 181 181 181 181 180 177 176 174 173 175 176 179 184 190
246 225 223 214 195 191 201 200 192 189 183 181 193 179 162 166 167 176 187 187 192 193 190 190 190 192 192 189 188 188 186 187 187 186 183 181 180 180 181 185 190 193 201
253 232 232 218 205 201 202 195 186 188 188 152 123 74 12 41 167 179 183 173 186 192 191 192 192 192 195 198 195 194 193 193 192 192 191 188 186 185 189 193 195 198 203
261 246 228 218 210 206 204 201 186 178 184 162 149 129 108 346 327 194 175 176 180 183 186 195 197 196 197 197 201 199 197 197 198 197 195 192 188 189 193 194 196 199 206
270 254 235 221 213 205 206 206 193 180 181 181 163 152 161 199 218 305 191 173 167 169 184 191 199 200 200 201 202 204 200 198 198 198 197 195 194 193 193 193 194 195 198
275 261 239 225 218 209 209 209 197 186 171 176 177 186 171 157 152 170 306 147 161 172 178 185 196 200 201 201 205 205 204 202 199 199 197 195 195 196 198 196 194 193 194
276 267 250 232 222 215 214 212 200 188 182 179 175 166 160 128 124 143 168 170 127 171 170 174 187 196 200 201 204 208 206 204 201 199 198 197 198 197 198 200 199 202 202
290 279 261 239 225 217 214 213 205 198 194 187 184 174 164 163 171 153 153 165 174 204 163 172 180 191 199 200 204 206 204 202 202 202 199 198 200 201 202 202 205 207 207
311 297 276 244 228 220 213 208 204 203 199 193 191 188 183 180 158 154 151 155 161 177 137 170 186 182 194 196 202 202 200 199 203 207 206 202 200 202 203 204 208 211 215
302 299 296 267 237 223 215 204 205 206 203 202 199 188 183 185 171 165 162 155 153 164 175 198 187 188 184 184 193 191 196 199 202 206 210 206 203 202 203 203 207 210 216
332 336 331 302 256 222 210 201 203 202 198 201 197 189 183 187 185 179 167 160 160 170 199 198 185 186 164 168 175 183 190 195 198 204 207 207 205 201 198 193 193 195 202
360 2 5 10 12 352 205 197 200 199 187 191 189 178 179 178 183 187 183 172 164 160 175 188 185 174 161 153 162 164 174 185 196 200 203 207 206 202 195 189 188 187 186
12 16 17 20 26 19 28 73 205 184 176 181 179 181 186 176 183 186 179 171 171 156 164 159 140 141 136 147 141 144 151 160 179 186 185 183 180 183 186 181 170 166 166
13 18 23 25 26 23 33 47 44 136 156 167 175 176 180 174 176 178 173 174 174 165 159 160 150 150 149 162 153 146 141 142 147 158 158 154 148 142 135 138 130 130 127
19 22 26 27 23 21 35 41 56 87 116 137 159 170 173 163 166 164 164 166 163 155 143 147 152 139 123 141 128 117 115 111 123 126 126 127 127 121 112 109 104 99 98
25 26 28 25 24 25 33 47 62 70 80 83 104 134 147 157 160 159 162 162 154 145 142 142 140 133 123 125 125 126 115 102 103 102 97 102 103 99 100 101 99 95 88
27 24 27 23 19 23 36 46 56 75 75 71 69 89 114 130 151 160 157 154 150 147 146 143 139 134 137 137 142 137 129 115 91 92 95 85 84 79 75 79 83 84 83
21 24 26 25 23 27 37 47 59 70 74 74 69 65 81 96 115 125 136 147 153 153 154 148 146 152 156 150 138 139 136 131 114 107 96 78 72 74 63 67 76 82 83
23 25 24 25 23 20 38 56 62 68 68 63 63 64 78 86 90 95 101 105 108 123 143 148 149 159 156 158 146 143 141 127 117 130 107 84 62 69 58 64 72 75 80
25 25 24 23 26 31 47 58 64 66 65 57 52 61 74 73 87 102 100 91 82 77 99 112 129 136 142 145 144 137 130 109 99 94 96 99 74 68 55 52 61 69 73
29 27 25 28 30 28 41 53 62 64 64 55 47 51 67 80 94 101 101 100 91 77 78 89 94 97 107 117 126 123 123 127 122 103 74 106 119 98 66 37 47 59 67
35 35 36 31 32 29 35 47 59 67 68 58 46 41 57 83 96 101 103 108 104 93 89 83 73 70 79 96 110 128 142 142 134 128 130 112 137 134 112 52 29 43 58
Height
1539 1539 1540 1541 1542 1543 1544 1545 1546 1547 1548 1549 1550 1551 1552 1554 1555 1556 1556 1557 1557 1557 1557 1558 1558 1559 1560 1561 1562 1563 1564 1565 1566 1567 1568 1569 1569 1570 1571 1572 1573 1574 1574
1534 1535 1536 1537 1538 1540 1541 1542 1544 1545 1546 1547 1548 1549 1550 1552 1553 1554 1555 1556 1556 1556 1556 1557 1557 1558 1559 1560 1562 1563 1564 1565 1566 1567 1568 1569 1570 1571 1572 1572 1573 1574 1574
1529 1530 1532 1532 1534 1536 1538 1539 1541 1542 1543 1545 1546 1547 1548 1549 1551 1552 1554 1555 1555 1555 1555 1556 1556 1557 1559 1560 1561 1562 1563 1565 1566 1567 1568 1569 1569 1570 1571 1572 1573 1573 1574
1525 1526 1527 1528 1530 1532 1534 1535 1537 1538 1540 1542 1543 1545 1546 1547 1549 1551 1552 1553 1554 1554 1554 1555 1555 1557 1558 1559 1560 1561 1563 1564 1565 1566 1567 1568 1569 1570 1571 1572 1572 1573 1573
1520 1520 1522 1524 1525 1527 1529 1531 1533 1535 1536 1538 1541 1542 1544 1545 1547 1549 1550 1552 1553 1553 1554 1554 1555 1556 1557 1558 1559 1560 1562 1563 1564 1565 1566 1568 1568 1569 1570 1571 1572 1572 1572
1515 1515 1517 1518 1520 1522 1524 1527 1529 1531 1533 1535 1538 1540 1542 1543 1544 1546 1548 1549 1551 1552 1553 1553 1554 1554 1555 1557 1558 1559 1560 1561 1563 1564 1565 1566 1567 1568 1569 1570 1570 1571 1571
1510 1510 1512 1513 1515 1517 1519 1522 1524 1527 1529 1532 1534 1537 1539 1540 1542 1543 1545 1546 1548 1550 1551 1552 1553 1554 1554 1555 1556 1558 1559 1560 1561 1563 1564 1565 1566 1567 1568 1568 1569 1569 1570
1505 1505 1506 1508 1510 1512 1514 1517 1520 1522 1525 1528 1530 1533 1535 1538 1538 1540 1542 1543 1545 1547 1549 1550 1551 1552 1553 1554 1555 1556 1558 1559 1560 1561 1562 1563 1564 1565 1566 1567 1567 1568 1568
1499 1500 1501 1503 1505 1507 1509 1512 1514 1517 1520 1523 1526 1528 1531 1532 1534 1537 1538 1540 1542 1544 1546 1547 1549 1551 1552 1553 1554 1555 1556 1558 1559 1560 1561 1562 1563 1563 1564 1565 1565 1566 1566
1495 1496 1497 1498 1500 1502 1504 1506 1509 1512 1515 1517 1520 1523 1527 1528 1530 1532 1535 1537 1539 1540 1542 1544 1546 1548 1550 1551 1553 1554 1555 1556 1557 1558 1559 1560 1561 1562 1562 1563 1564 1564 1564
1491 1492 1492 1494 1495 1497 1499 1501 1504 1507 1510 1512 1515 1518 1521 1524 1526 1528 1530 1533 1535 1537 1539 1541 1543 1545 1547 1549 1550 1552 1553 1554 1556 1557 1558 1559 1559 1560 1561 1561 1562 1562 1562
1489 1489 1489 1490 1491 1493 1495 1497 1499 1502 1505 1508 1510 1513 1516 1519 1521 1524 1526 1529 1531 1534 1535 1538 1540 1542 1544 1546 1548 1549 1551 1552 1554 1555 1556 1557 1558 1559 1559 1560 1560 1560 1561
1487 1486 1486 1487 1488 1489 1491 1493 1495 1498 1500 1503 1505 1508 1511 1515 1518 1520 1523 1526 1528 1530 1532 1534 1536 1538 1540 1542 1544 1546 1548 1550 1551 1553 1554 1555 1556 1557 1558 1558 1558 1559 1559
1485 1484 1484 1484 1485 1486 1488 1490 1491 1493 1496 1498 1501 1504 1507 1510 1513 1516 1519 1522 1524 1527 1528 1530 1532 1534 1537 1539 1541 1543 1544 1546 1548 1550 1551 1553 1554 1555 1556 1556 1556 1557 1557
1484 1483 1482 1482 1482 1483 1484 1487 1488 1490 1492 1495 1497 1500 1502 1505 1509 1512 1515 1517 1521 1522 1525 1527 1529 1531 1533 1535 1537 1539 1541 1543 1545 1547 1548 1550 1551 1553 1553 1554 1554 1555 1555
1483 1482 1481 1480 1480 1480 1482 1484 1485 1487 1489 1491 1493 1496 1498 1501 1505 1508 1510 1513 1515 1519 1521 1524 1526 1528 1530 1532 1534 1536 1538 1540 1542 1543 1545 1547 1548 1550 1551 1551 1552 1552 1553
1484 1482 1480 1479 1479 1479 1480 1482 1483 1485 1486 1488 1491 1493 1495 1498 1501 1504 1506 1508 1511 1514 1517 1520 1523 1525 1527 1529 1531 1533 1535 1537 1539 1540 1542 1543 1545 1546 1547 1548 1549 1550 1550
1485 1483 1481 1480 1479 1479 1479 1480 1481 1482 1484 1486 1488 1490 1493 1495 1498 1501 1503 1505 1508 1511 1514 1516 1519 1522 1524 1527 1529 1530 1532 1534 1536 1537 1539 1540 1542 1543 1544 1545 1546 1547 1547
1486 1484 1483 1481 1481 1480 1480 1480 1481 1482 1483 1485 1487 1489 1491 1493 1495 1498 1500 1503 1506 1508 1511 1514 1516 1519 1522 1524 1526 1528 1530 1531 1533 1535 1536 1538 1539 1541 1542 1543 1544 1544 1545
1488 1486 1485 1483 1482 1482 1481 1481 1482 1482 1483 1485 1486 1488 1490 1492 1494 1496 1498 1501 1504 1506 1509 1512 1514 1517 1520 1522 1524 1526 1528 1530 1532 1533 1535 1536 1538 1539 1540 1541 1542 1542 1542
1491 1489 1487 1486 1484 1483 1483 1483 1483 1483 1484 1485 1486 1488 1489 1491 1493 1495 1497 1499 1502 1505 1507 1510 1512 1515 1517 1520 1522 1525 1527 1529 1531 1533 1534 1536 1537 1538 1539 1540 1540 1541 1541
1495 1492 1490 1488 1486 1485 1485 1485 1485 1485 1486 1487 1488 1489 1490 1491 1493 1495 1497 1500 1502 1504 1507 1509 1511 1513 1516 1518 1521 1523 1526 1528 1530 1533 1534 1535 1537 1538 1539 1539 1539 1540 1540
1498 1495 1493 1491 1489 1488 1487 1486 1486 1487 1488 1489 1490 1490 1491 1493 1495 1496 1498 1500 1503 1505 1507 1509 1511 1513 1515 1517 1519 1522 1525 1527 1529 1532 1534 1535 1537 1538 1538 1539 1539 1539 1539
1501 1498 1496 1495 1493 1491 1490 1489 1489 1489 1490 1491 1491 1492 1493 1495 1496 1498 1499 1501 1503 1505 1507 1510 1511 1513 1515 1517 1519 1522 1524 1527 1529 1532 1534 1535 1537 1538 1539 1539 1539 1539 1539
1504 1501 1499 1498 1496 1495 1494 1493 1493 1493 1493 1494 1494 1495 1496 1497 1498 1499 1501 1502 1504 1506 1508 1510 1512 1514 1515 1517 1519 1521 1524 1526 1529 1531 1534 1535 1536 1537 1539 1539 1539 1539 1539
1506 1504 1502 1501 1500 1498 1498 1497 1497 1496 1496 1497 1497 1497 1498 1499 1501 1502 1503 1505 1506 1508 1510 1512 1513 1515 1517 1519 1521 1523 1525 1526 1528 1531 1533 1534 1535 1537 1538 1539 1539 1539 1539